Regional Weather Roundup
Issued by NWS

Home | Current Version | Previous Version | Text Only | Print | Product List | Glossary On
Versions: 1 2 3 4 5 6 7 8 9 10 11 12 13 14 15 16 17 18 19 20 21 22 23 24 25 26 27 28 29 30 31 32 33 34 35 36 37 38 39 40 41 42 43 44 45 46 47 48 49 50
000
ASUS43 KFSD 181302
RWRSD

WEATHER ROUNDUP FOR SOUTH DAKOTA
NATIONAL WEATHER SERVICE SIOUX FALLS SD
700 AM CST MON DEC 18 2017

NOTE: "FAIR" INDICATES FEW OR NO CLOUDS BELOW 12,000 FEET WITH NO
SIGNIFICANT WEATHER AND/OR OBSTRUCTIONS TO VISIBILITY.


SDZ001>005-009-010-012>017-181400-
NORTHWEST AND NORTH CENTRAL SOUTH DAKOTA

CITY           SKY/WX    TMP DP  RH WIND       PRES   REMARKS
BUFFALO          N/A     29  19  66 W8        29.61F WCI  21
FAITH            N/A     29  21  72 SW14      29.71F WCI  18
MOBRIDGE       CLOUDY    29  22  75 CALM      29.67F
$$

SDZ012>016-024>037-041>051-057-063-072>074-181400-
SOUTHWEST AND SOUTH CENTRAL SOUTH DAKOTA

CITY           SKY/WX    TMP DP  RH WIND       PRES   REMARKS
RAPID CTY ARPT CLEAR     26  17  68 SE3       29.76F
PIERRE         CLEAR     28  23  81 SW10      29.77S WCI  19
CUSTER         CLOUDY    25  15  66 W13       29.76F WCI  14
ELLSWORTH AFB  CLEAR     28  18  66 SW6       29.74F WCI  22
PHILIP         CLEAR     27  21  78 W10       29.79S WCI  17
PINE RIDGE     CLOUDY    23  17  78 S5        29.84F WCI  17
SPEARFISH      FAIR      41  19  42 W15G22    29.72R
WINNER         FAIR      32  22  66 SW10      29.82S WCI  24
$$

SDZ004>011-016>023-039-040-181400-
NORTHEAST SOUTH DAKOTA

CITY           SKY/WX    TMP DP  RH WIND       PRES   REMARKS
ABERDEEN       CLOUDY    24  23  96 SW8       29.72F WCI  15
WATERTOWN      CLOUDY    28  26  92 SW13      29.72S WCI  17
BROOKINGS      CLOUDY    27  25  92 SW8       29.77S WCI  19
SISSETON         N/A     32  27  81 SW13      29.69S WCI  22
$$

SDZ017-020-022-023-036>040-048>070-181400-
SOUTHEAST SOUTH DAKOTA

CITY           SKY/WX    TMP DP  RH WIND       PRES   REMARKS
SIOUX FALLS    CLOUDY    27  24  89 SW5       29.80S WCI  22
HURON          CLOUDY    27  24  89 MISG      29.78R
CHAMBERLAIN    CLEAR     28  25  90 SW3       29.80S
MITCHELL       CLOUDY    30  25  81 W10       29.81S WCI  21
YANKTON        CLOUDY    31  27  85 W6        29.85R WCI  25
$$

ABBREVIATIONS USED IN REMARKS
   TC - TEMPERATURE IN CELSIUS
  WCI - WIND CHILL INDEX
   HX - HEAT INDEX
  VSB - VISIBILITY




USA.gov is the U.S. government's official web portal to all federal, state and local government web resources and services.